Location: Unspecified
(42.9300°N, 71.1866°W)
Time: 14:17:21
(UTC-04:00)

CZ-3 Stage 3 - Visible Passes

Search period start: 28 April 2015 00:00
Search period end: 08 May 2015 00:00
Orbit: 419 x 34809 km, 31.0° (Epoch: 26 April)

Date Brightness Start Highest point End Pass type
(mag) Time Alt. Az. Time Alt. Az. Time Alt. Az.
29 Apr 7.1 11:41:18 10° SW 20:20:17 40° WSW 20:59:52 10° S visible
02 May 7.2 11:36:13 10° SW 20:14:04 39° WSW 20:54:12 10° S visible
05 May 7.2 11:31:06 10° WSW 20:07:46 38° WSW 20:48:26 10° S visible
